TimeMST,TemperatureF,Dew PointF,Humidity,Sea Level PressureIn,VisibilityMPH,Wind Direction,Wind SpeedMPH,Gust SpeedMPH,PrecipitationIn,Events,Conditions,WindDirDegrees,DateUTC
12:15 AM,39.2,24.8,56,29.80,10.0,West,6.9,-,N/A,,Mostly Cloudy,260,2013-11-03 06:15:00
12:35 AM,37.4,23.0,56,29.80,10.0,WNW,6.9,-,N/A,,Scattered Clouds,290,2013-11-03 06:35:00
12:55 AM,37.4,23.0,56,29.80,10.0,West,8.1,-,N/A,,Clear,260,2013-11-03 06:55:00
1:15 AM,37.4,26.6,65,29.81,10.0,West,8.1,-,N/A,,Clear,270,2013-11-03 07:15:00
1:35 AM,37.4,26.6,65,29.81,10.0,WSW,8.1,-,N/A,,Clear,250,2013-11-03 07:35:00
1:55 AM,37.4,23.0,56,29.81,10.0,West,5.8,-,N/A,,Clear,280,2013-11-03 07:55:00
1:15 AM,35.6,21.2,56,29.81,10.0,WSW,9.2,-,N/A,,Clear,240,2013-11-03 08:15:00
1:35 AM,35.6,19.4,52,29.81,10.0,WSW,10.4,-,N/A,,Clear,250,2013-11-03 08:35:00
1:55 AM,35.6,19.4,52,29.81,10.0,WSW,9.2,16.1,N/A,,Clear,250,2013-11-03 08:55:00
2:15 AM,33.8,19.4,56,29.81,10.0,West,10.4,-,N/A,,Clear,270,2013-11-03 09:15:00
2:35 AM,33.8,19.4,56,29.81,10.0,West,10.4,-,N/A,,Clear,260,2013-11-03 09:35:00
2:55 AM,33.8,17.6,52,29.81,10.0,WNW,4.6,-,N/A,,Clear,290,2013-11-03 09:55:00
3:15 AM,32.0,17.6,55,29.82,10.0,WNW,3.5,-,N/A,,Clear,300,2013-11-03 10:15:00
3:35 AM,32.0,17.6,55,29.82,10.0,NE,3.5,-,N/A,,Clear,40,2013-11-03 10:35:00
3:55 AM,30.2,17.6,60,29.82,10.0,NNE,4.6,-,N/A,,Clear,30,2013-11-03 10:55:00
4:15 AM,32.0,17.6,55,29.82,10.0,NNE,3.5,-,N/A,,Clear,20,2013-11-03 11:15:00
4:35 AM,30.2,17.6,60,29.82,10.0,Calm,Calm,-,N/A,,Clear,0,2013-11-03 11:35:00
4:55 AM,30.2,17.6,60,29.82,10.0,Calm,Calm,-,N/A,,Clear,0,2013-11-03 11:55:00
5:15 AM,30.2,19.4,64,29.83,10.0,West,6.9,-,N/A,,Clear,270,2013-11-03 12:15:00
5:35 AM,30.2,17.6,60,29.83,10.0,NNW,4.6,-,N/A,,Clear,340,2013-11-03 12:35:00
5:55 AM,30.2,17.6,60,29.83,10.0,NE,4.6,-,N/A,,Clear,50,2013-11-03 12:55:00
6:47 AM,28.4,15.8,59,29.84,10.0,NNW,4.6,-,N/A,,Clear,330,2013-11-03 13:47:00
7:47 AM,26.6,15.8,64,29.86,10.0,NW,5.8,-,N/A,,Partly Cloudy,310,2013-11-03 14:47:00
8:47 AM,30.2,15.8,55,29.87,10.0,NW,5.8,-,N/A,,Partly Cloudy,310,2013-11-03 15:47:00
9:47 AM,33.8,12.2,41,29.87,10.0,NW,5.8,-,N/A,,Scattered Clouds,310,2013-11-03 16:47:00
10:47 AM,35.6,10.4,35,29.87,10.0,WSW,10.4,-,N/A,,Scattered Clouds,240,2013-11-03 17:47:00
11:50 AM,37.4,28.4,70,29.87,10.0,WNW,11.5,-,N/A,Snow,Snow,290,2013-11-03 18:50:00
12:47 PM,35.6,17.6,48,29.89,10.0,WNW,11.5,-,N/A,,Mostly Cloudy,300,2013-11-03 19:47:00
1:50 PM,35.6,10.4,35,29.87,10.0,West,11.5,-,N/A,,Scattered Clouds,270,2013-11-03 20:50:00
2:47 PM,35.6,10.4,35,29.88,10.0,WNW,11.5,-,N/A,,Scattered Clouds,300,2013-11-03 21:47:00
3:47 PM,35.6,10.4,35,29.90,10.0,WSW,10.4,-,N/A,,Scattered Clouds,240,2013-11-03 22:47:00
4:47 PM,33.8,12.2,41,29.90,10.0,WNW,11.5,-,N/A,,Partly Cloudy,290,2013-11-03 23:47:00
5:47 PM,32.0,15.8,51,29.92,10.0,SSW,6.9,-,N/A,,Partly Cloudy,210,2013-11-04 00:47:00
6:50 PM,30.2,14.0,51,29.93,10.0,Calm,Calm,-,N/A,,Partly Cloudy,0,2013-11-04 01:50:00
7:47 PM,28.4,15.8,59,29.94,10.0,Calm,Calm,-,N/A,,Partly Cloudy,0,2013-11-04 02:47:00
8:50 PM,26.6,15.8,64,29.96,10.0,WNW,5.8,-,N/A,,Partly Cloudy,300,2013-11-04 03:50:00
9:50 PM,26.6,14.0,59,29.96,10.0,WNW,5.8,-,N/A,,Partly Cloudy,290,2013-11-04 04:50:00
10:15 PM,26.6,14.0,59,29.97,10.0,NW,5.8,-,N/A,,Clear,320,2013-11-04 05:15:00
10:35 PM,26.6,14.0,59,29.97,10.0,NW,9.2,-,N/A,,Clear,310,2013-11-04 05:35:00
10:47 PM,24.8,14.0,64,29.97,10.0,NW,10.4,-,N/A,,Partly Cloudy,320,2013-11-04 05:47:00
10:55 PM,26.6,14.0,59,29.97,10.0,NNW,9.2,-,N/A,,Clear,340,2013-11-04 05:55:00